Погода в Оханске

Погода в Оханске : погода сейчас, прогноз погоды и архив. Всё, что Вы хотите узнать о погоде в Оханске!

Поиск расширенной информации на нашем сайте:

Другие новости

Новости СМИ2

Главная страница сайта

Новости сайта

03.07.2017

Напоминаем, что на нашем специализированном сайте Метеоцентр.Азия вы можете получить высокодетализированные автоматические прогнозы погоды по пунктам России, СНГ и мира в авиационном формате (включающие направление и скорость ветра, видимость, явления погоды, количество и форму облачности, нижнюю и верхнюю границу облачности).

Рекомендуем: Детский трикотаж оптом из иваново valeriya-ivanovo.ru.

Погода в Оханске - сегодня

Время (UTC), дата Ветер
(°,м/с) 
Видим.   Явления Облачность Т
(°С)
Тd
(°С)
f(%) Тe
(°С)
Pmin
(гПа)
dP
(гПа)
Po
(мм)
O2
(г/м3)
Тmin Tmax R s Состояние
почвы
06 17.05.18 230 (ЮЗ) 20000 м    3/0 верхняя 
[Ci fib]
+16.2 -2 29 +17  1015.8  -0.6  747  284           
09 17.05.18 350 (С) 20000 м    3/3 1000 м 
[Cu med, cong]
+19.1 -3.2 22 +20  1014.7  -0.9  747  282           
12 17.05.18 330 (СЗ) 20000 м    3/3 1000 м 
[Cu med, cong]
+20.8 -4.7 18 +21  1013.8  -0.8  746  280           
18 17.05.18 240 (ЮЗ) 20000 м    ясно 
+15.7 -2.7 28 +16  1013.3  746  284           
21 17.05.18 230 (ЮЗ) 20000 м    ясно 
+10.5 -0.1 48 +11  1013.2  -0.5  745  289           
00 18.05.18 210 (ЮЗ) 20000 м    3/0 верхняя 
[Ci fib]
+7 +3.3 77 +7  1013.3  0.1  745  292           
06 18.05.18 320 (СЗ) 20000 м    8/3 2000 м средняя, верхняя 
[Ac trans|Ci fib]
+20.6 +1.6 28 +21  1012.7  0.1  745  279           
09 18.05.18 340 (С) 20000 м    9/5 600 м средняя, верхняя 
[Cu med, cong|Ac trans|Ci fib]
+22.3 -0.7 22 +22  1012.7  0.1  745  278           
12 18.05.18 030 (СВ) 20000 м    9/6 600 м средняя 
[Cu med, cong|Ac trans]
+22.4 -0.8 21 +22  1013.2  0.5  746  278           
18 18.05.18 120 (ЮВ) 20000 м    10/4 600 м средняя 
[Sc|Ac As]
+16.5 +0 33 +17  1013.5  746  283           
21 18.05.18 110 (В) 20000 м    8/8 2000 м средняя 
[Ac As]
+14.8 -0.1 36 +15  1013  -0.5  745  285           
00 19.05.18 140 (ЮВ) 20000 м    10/8 600 м средняя 
[Sc|Ac trans]
+13.4 +1.3 44 +13  1012.3  -0.5  745  286           
06 19.05.18 170 (Ю) 20000 м    8/4 600 м кучево-дожд., средняя, верхняя 
[Cb calv|Ac trans|Ci sp]
+18.7 +8.2 50 +19  1009.6  -1.2  743  279           
09 19.05.18 170 (Ю) 20000 м    8/3 600 м средняя, верхняя 
[Cu med, cong|Ac trans|Ci sp]
+24.3 +10.5 42 +26  1008.1  -1.1  742  273           
21 19.05.18 180 (Ю) 4{14}  20000 м    8/6 600 м кучево-дожд., верхняя 
[Cb calv|Ci sp]
+16.9 +11.4 70 +20  1006  0.2  740  279           
00 20.05.18 170 (Ю) 20000 м    8/4 2000 м средняя, верхняя 
[Ac trans|Ci sp]
+14 +10.6 80 +16  1006.3  0.1  740  282           
06 20.05.18 240 (ЮЗ) 20000 м    8/8 1000 м 
[Cu med, cong]
+21.1 +9.4 47 +22  1004.7  -0.9  739  275           
18 20.05.18 340 (С) 20000 м  {ливн. осадки}  10/8 600 м средняя 
[Sc diur, vesp|As op]
+10 +4.8 70 +9  1014.7  3.4  746  289           
21 20.05.18 340 (С) 20000 м    10/8 600 м средняя 
[Sc|As op]
+7.7 +3.4 74 +7  1017.2  2.3  748  293           
00 21.05.18 330 (СЗ) 20000 м    10/10 2000 м 
[Ac und]
+5.8 +3.4 85 +5  1019.2  1.8  749  295           
09 21.05.18 350 (С) 20000 м    3/1 600 м верхняя 
[Cu hum|Ci fib]
+10.9 +0.6 49 +11  1024.3  0.8  753  292           
12 21.05.18 350 (С) 3{10}  20000 м    3/0 верхняя 
[Ci sp]
+15.1 -2 31 +15  1024  753  288           
15 21.05.18 300 (СЗ) 20000 м    ясно 
+15.5 -0.9 32 +17  1024.1  753  287    +15.6  0.0     
18 21.05.18 300 (СЗ) 20000 м    ясно 
+12 +0.5 45 +13  1025.4  754  291           
21 21.05.18 240 (ЮЗ) 20000 м    ясно 
+6.9 +2.1 71 +7  1025.6  -0.2  754  296           
Время (UTC), дата Ветер
(°,м/с) 
Видим.   Явления Облачность Т
(°С)
Тd
(°С)
f(%) Тe
(°С)
Pmin
(гПа)
dP
(гПа)
Po
(мм)
O2
(г/м3)
Тmin Tmax R s Состояние
почвы

Для получения пояснительной информации подведите курсор к названию столбца.

ПОГОДА в Оханске - архив

Всё, что Вы хотите узнать о погоде в Оханске - удобно и подробно!

Выберите нужную дату (начиная с 1 января 2015* года) и нажмите кнопку "Найти".
Будут отображены архивные сводки погоды по пункту Оханск, начиная с указанной даты.


Отображать данные в формате CSV (для использования в таблицах Excel)


Внимание! Наш архив погоды предназначен исключительно для личного некоммерческого использования в познавательных целях. Если Вам необходимы официальные справки о состоянии погоды (для производственных, юридических, коммерческих и т.п. целей), обращайтесь в органы Росгидромета.

*Примечание: данная дата относится к архиву по метеостанциям СССР (Россия, СНГ, Балтия).
Архив по метеостанциям Зарубежной Европы и Азии (кроме Китая) хранится 10 дней, по другим регионам земного шара (Китай, Африка, Америка, Австралия, Океания) - 1 день.

Оханск - район местоположения метеостанции


Название, широта, долгота, высота метеостанции:
Оханск 57.7°ш. 55.4°д. 163 м над ур. моря [Российская Федерация]

Дополнительная информация

В oтличие oт бoльшинства пoгoдных сайтoв мы публикуем пoдрoбную метеoинфoрмацию в детальнoм прoфессиoнальнoм фoрмате.

Характеристики температуры и влажнoсти вoздуха измеряются на высoте 2 м в тени вдали oт зданий и деревьев.
Скoрoсть ветра измеряется на высoте 10 м (на урoвне рoста челoвека скoрoсть ветра ниже в 1.5-2 раза). Если метеoстанция нахoдится в гoрoде или в лесу, тo скoрoсть ветра занижена на 2-4 м/с пo сравнению с oткрытым местoм. Скoрoсть ветра над акватoриями крупных рек и oзёр, а также на вершинах хoлмoв на 2-5 м/с выше, чем в oбычных услoвиях.
Атмoсфернoе давление в разных тoчках местнoсти мoжет значительнo oтличаться oт давления на метеoстанции, в зависимoсти oт услoвий рельефа (при пoдъёме на 10 м давление пoнижается примернo на 1 мм рт.ст.).